Celine — HBEF — position and weather

sailwx.info

Track history (hours):
 
Tides and Currents Weather Stations Pressure Air Temp Water Temp Dewpoint Dewpoint Depression Visibility Wind Speed Wind Dir Waves Ship Positions

Celine

Last reported at 2014-Oct-25 08:33 UTC. Time now 2014-Oct-25 09:29 UTC.
Position N 53°44' E 005°53'.

Length 129 m; draft 6.3 m.

Type: Cargo ship. MMSI: 269057000.

Date/timePositionNaut miles runAvg speedWind from/ knotsBaromVisibWave heightAir tempDewpointWater temp
2014-Oct-25 08:33N 53°44' E 005°53'1311.5
2014-Oct-25 07:25N 53°48' E 006°14'4611.8
2014-Oct-25 03:33N 53°60' E 007°29'1212.4
2014-Oct-25 02:34N 54°01' E 007°50'1312.6
2014-Oct-25 01:33N 54°01' E 008°12'1312.6
2014-Oct-25 00:34N 53°58' E 008°33'1111.2
2014-Oct-24 23:33N 53°51' E 008°47'1010.5
2014-Oct-24 22:34N 53°52' E 009°04'3 3.4
2014-Oct-24 21:33N 53°54' E 009°09'8 8.0
2014-Oct-24 20:33N 54°00' E 009°18'13 6.7
2014-Oct-24 18:33N 54°11' E 009°31'7 7.4
2014-Oct-24 17:33N 54°17' E 009°39'8 7.6
2014-Oct-24 16:30N 54°22' E 009°50'7 7.8
2014-Oct-24 15:32N 54°22' E 010°03'3 3.5
2014-Oct-24 14:33N 54°22' E 010°09'3 2.5
2014-Oct-24 13:33N 54°24' E 010°12'1010.1
2014-Oct-24 12:33N 54°31' E 010°23'1110.2
2014-Oct-24 11:26N 54°35' E 010°42'2412.3
2014-Oct-24 09:30N 54°33' E 011°23'1314.2
2014-Oct-24 08:33N 54°27' E 011°44'1212.0
2014-Oct-24 07:33N 54°26' E 012°04'1111.4
2014-Oct-24 06:33N 54°36' E 012°14'1311.6
2014-Oct-24 05:26N 54°43' E 012°32'3712.4
2014-Oct-24 02:28N 54°46' E 013°35'5012.8
2014-Oct-23 22:33N 54°01' E 014°15'8 8.1
2014-Oct-23 21:33N 53°53' E 014°16'8 7.9
2014-Oct-23 20:33N 53°47' E 014°23'1110.8
2014-Oct-23 19:33N 53°38' E 014°34'9 9.1
2014-Oct-23 18:33N 53°29' E 014°37'5 4.4
2014-Oct-23 17:31N 53°25' E 014°37'0 0.0
2014-Oct-23 16:33N 53°25' E 014°37'0 0.0
2014-Oct-23 15:30N 53°25' E 014°37'0 0.0
2014-Oct-23 14:30N 53°25' E 014°37'0 0.0
2014-Oct-23 13:30N 53°25' E 014°37'0 0.0
2014-Oct-23 12:31N 53°25' E 014°37'0 0.0
2014-Oct-23 11:30N 53°25' E 014°37'0 0.0
2014-Oct-23 10:30N 53°25' E 014°37'0 0.0
2014-Oct-23 09:34N 53°25' E 014°37'0 0.0
2014-Oct-23 08:33N 53°25' E 014°37'0 0.0
2014-Oct-23 07:33N 53°25' E 014°37'0 0.0
2014-Oct-23 06:33N 53°25' E 014°37'0 0.0
2014-Oct-23 05:33N 53°25' E 014°37'0 0.0
2014-Oct-23 04:33N 53°25' E 014°37'0 0.0
2014-Oct-23 03:34N 53°25' E 014°37'0 0.0
2014-Oct-23 02:33N 53°25' E 014°37'0 0.0
2014-Oct-23 01:33N 53°25' E 014°37'0 0.0
2014-Oct-23 00:33N 53°25' E 014°37'0 0.0
2014-Oct-22 23:33N 53°25' E 014°37'0 0.0
2014-Oct-22 22:33N 53°25' E 014°37'0 0.0
2014-Oct-22 21:33N 53°25' E 014°37'0 0.0
2014-Oct-22 20:33N 53°25' E 014°37'0 0.0
2014-Oct-22 19:33N 53°25' E 014°37'0 0.0
2014-Oct-22 18:33N 53°25' E 014°37'0 0.0
2014-Oct-22 17:33N 53°25' E 014°37'0 0.0
2014-Oct-22 16:33N 53°25' E 014°37'0 0.0
2014-Oct-22 15:33N 53°25' E 014°37'0 0.0
2014-Oct-22 14:33N 53°25' E 014°37'0 0.0
2014-Oct-22 13:33N 53°25' E 014°37'0 0.0
2014-Oct-22 12:33N 53°25' E 014°37'0 0.0
2014-Oct-22 11:33N 53°25' E 014°37'0 0.0
2014-Oct-22 10:33N 53°25' E 014°37'0 0.0
2014-Oct-22 09:33N 53°25' E 014°37'0 0.0
2014-Oct-22 08:33N 53°25' E 014°37'0 0.0
2014-Oct-22 07:33N 53°25' E 014°37'0 0.0
2014-Oct-22 06:33N 53°25' E 014°37'0 0.0
2014-Oct-22 05:33N 53°25' E 014°37'0 0.2
2014-Oct-22 04:33N 53°25' E 014°37'7 7.0
2014-Oct-22 03:33N 53°32' E 014°38'9 9.3
2014-Oct-22 02:33N 53°40' E 014°31'1111.3
2014-Oct-22 01:33N 53°49' E 014°20'6 6.5
2014-Oct-22 00:33N 53°55' E 014°17'47 9.3
2014-Oct-21 19:32N 54°37' E 014°54'1413.5
2014-Oct-21 18:28N 54°39' E 015°18'7813.2
2014-Oct-21 12:33N 54°56' E 017°31'1312.9
2014-Oct-21 11:33N 54°59' E 017°53'1312.9
2014-Oct-21 10:33N 54°59' E 018°15'1313.1
2014-Oct-21 09:33N 54°58' E 018°38'1313.0
2014-Oct-21 08:33N 54°56' E 019°00'1313.5
2014-Oct-21 07:33N 54°49' E 019°21'1313.1
2014-Oct-21 06:33N 54°43' E 019°41'10 9.4
2014-Oct-21 05:31N 54°38' E 019°55'0 0.2
2014-Oct-21 04:28N 54°38' E 019°55'0 0.0
2014-Oct-21 03:31N 54°38' E 019°55'0 0.0
2014-Oct-21 02:31N 54°38' E 019°55'0 0.0
2014-Oct-21 01:31N 54°38' E 019°55'0 0.0
2014-Oct-21 00:28N 54°38' E 019°55'0 0.0
2014-Oct-20 23:31N 54°38' E 019°55'0 0.0
2014-Oct-20 22:31N 54°38' E 019°55'0 0.0
2014-Oct-20 21:30N 54°38' E 019°55'0 0.0
2014-Oct-20 20:31N 54°38' E 019°55'2 1.8
2014-Oct-20 19:09N 54°39' E 019°51'2 3.1
2014-Oct-20 18:29N 54°40' E 019°48'1 0.7
2014-Oct-20 17:33N 54°39' E 019°49'0 0.0
2014-Oct-20 16:33N 54°39' E 019°49'0 0.0
2014-Oct-20 15:33N 54°39' E 019°49'0 0.0
2014-Oct-20 14:33N 54°39' E 019°49'0 0.1
2014-Oct-20 13:33N 54°39' E 019°49'0 0.0
2014-Oct-20 12:27N 54°39' E 019°49'0 0.1
2014-Oct-20 11:33N 54°39' E 019°49'0 0.0
2014-Oct-20 10:33N 54°39' E 019°49'0 0.0
2014-Oct-20 09:27N 54°39' E 019°49'0 0.0
2014-Oct-20 08:33N 54°39' E 019°49'0 0.0
2014-Oct-20 07:33N 54°39' E 019°49'6 6.4
2014-Oct-20 06:33N 54°43' E 019°40'10 9.7
2014-Oct-20 05:33N 54°52' E 019°34'1010.3
2014-Oct-20 04:33N 55°02' E 019°35'1110.4
2014-Oct-20 03:30N 55°13' E 019°36'  
Track history (hours):
 
Tides and Currents Weather Stations Pressure Air Temp Water Temp Dewpoint Dewpoint Depression Visibility Wind Speed Wind Dir Waves Ship Positions

Celine

Last reported at 2014-Oct-25 08:33 UTC. Time now 2014-Oct-25 09:29 UTC.
Position N 53°44' E 005°53'.

Length 129 m; draft 6.3 m.

Type: Cargo ship. MMSI: 269057000.

Date/timePositionNaut miles runAvg speedWind from/ knotsBaromVisibWave heightAir tempDewpointWater temp
2014-Oct-25 08:33N 53°44' E 005°53'1311.5
2014-Oct-25 07:25N 53°48' E 006°14'4611.8
2014-Oct-25 03:33N 53°60' E 007°29'1212.4
2014-Oct-25 02:34N 54°01' E 007°50'1312.6
2014-Oct-25 01:33N 54°01' E 008°12'1312.6
2014-Oct-25 00:34N 53°58' E 008°33'1111.2
2014-Oct-24 23:33N 53°51' E 008°47'1010.5
2014-Oct-24 22:34N 53°52' E 009°04'3 3.4
2014-Oct-24 21:33N 53°54' E 009°09'8 8.0
2014-Oct-24 20:33N 54°00' E 009°18'13 6.7
2014-Oct-24 18:33N 54°11' E 009°31'7 7.4
2014-Oct-24 17:33N 54°17' E 009°39'8 7.6
2014-Oct-24 16:30N 54°22' E 009°50'7 7.8
2014-Oct-24 15:32N 54°22' E 010°03'3 3.5
2014-Oct-24 14:33N 54°22' E 010°09'3 2.5
2014-Oct-24 13:33N 54°24' E 010°12'1010.1
2014-Oct-24 12:33N 54°31' E 010°23'1110.2
2014-Oct-24 11:26N 54°35' E 010°42'2412.3
2014-Oct-24 09:30N 54°33' E 011°23'1314.2
2014-Oct-24 08:33N 54°27' E 011°44'1212.0
2014-Oct-24 07:33N 54°26' E 012°04'1111.4
2014-Oct-24 06:33N 54°36' E 012°14'1311.6
2014-Oct-24 05:26N 54°43' E 012°32'3712.4
2014-Oct-24 02:28N 54°46' E 013°35'5012.8
2014-Oct-23 22:33N 54°01' E 014°15'8 8.1
2014-Oct-23 21:33N 53°53' E 014°16'8 7.9
2014-Oct-23 20:33N 53°47' E 014°23'1110.8
2014-Oct-23 19:33N 53°38' E 014°34'9 9.1
2014-Oct-23 18:33N 53°29' E 014°37'5 4.4
2014-Oct-23 17:31N 53°25' E 014°37'0 0.0
2014-Oct-23 16:33N 53°25' E 014°37'0 0.0
2014-Oct-23 15:30N 53°25' E 014°37'0 0.0
2014-Oct-23 14:30N 53°25' E 014°37'0 0.0
2014-Oct-23 13:30N 53°25' E 014°37'0 0.0
2014-Oct-23 12:31N 53°25' E 014°37'0 0.0
2014-Oct-23 11:30N 53°25' E 014°37'0 0.0
2014-Oct-23 10:30N 53°25' E 014°37'0 0.0
2014-Oct-23 09:34N 53°25' E 014°37'0 0.0
2014-Oct-23 08:33N 53°25' E 014°37'0 0.0
2014-Oct-23 07:33N 53°25' E 014°37'0 0.0
2014-Oct-23 06:33N 53°25' E 014°37'0 0.0
2014-Oct-23 05:33N 53°25' E 014°37'0 0.0
2014-Oct-23 04:33N 53°25' E 014°37'0 0.0
2014-Oct-23 03:34N 53°25' E 014°37'0 0.0
2014-Oct-23 02:33N 53°25' E 014°37'0 0.0
2014-Oct-23 01:33N 53°25' E 014°37'0 0.0
2014-Oct-23 00:33N 53°25' E 014°37'0 0.0
2014-Oct-22 23:33N 53°25' E 014°37'0 0.0
2014-Oct-22 22:33N 53°25' E 014°37'0 0.0
2014-Oct-22 21:33N 53°25' E 014°37'0 0.0
2014-Oct-22 20:33N 53°25' E 014°37'0 0.0
2014-Oct-22 19:33N 53°25' E 014°37'0 0.0
2014-Oct-22 18:33N 53°25' E 014°37'0 0.0
2014-Oct-22 17:33N 53°25' E 014°37'0 0.0
2014-Oct-22 16:33N 53°25' E 014°37'0 0.0
2014-Oct-22 15:33N 53°25' E 014°37'0 0.0
2014-Oct-22 14:33N 53°25' E 014°37'0 0.0
2014-Oct-22 13:33N 53°25' E 014°37'0 0.0
2014-Oct-22 12:33N 53°25' E 014°37'0 0.0
2014-Oct-22 11:33N 53°25' E 014°37'0 0.0
2014-Oct-22 10:33N 53°25' E 014°37'0 0.0
2014-Oct-22 09:33N 53°25' E 014°37'0 0.0
2014-Oct-22 08:33N 53°25' E 014°37'0 0.0
2014-Oct-22 07:33N 53°25' E 014°37'0 0.0
2014-Oct-22 06:33N 53°25' E 014°37'0 0.0
2014-Oct-22 05:33N 53°25' E 014°37'0 0.2
2014-Oct-22 04:33N 53°25' E 014°37'7 7.0
2014-Oct-22 03:33N 53°32' E 014°38'9 9.3
2014-Oct-22 02:33N 53°40' E 014°31'1111.3
2014-Oct-22 01:33N 53°49' E 014°20'6 6.5
2014-Oct-22 00:33N 53°55' E 014°17'47 9.3
2014-Oct-21 19:32N 54°37' E 014°54'1413.5
2014-Oct-21 18:28N 54°39' E 015°18'7813.2
2014-Oct-21 12:33N 54°56' E 017°31'1312.9
2014-Oct-21 11:33N 54°59' E 017°53'1312.9
2014-Oct-21 10:33N 54°59' E 018°15'1313.1
2014-Oct-21 09:33N 54°58' E 018°38'1313.0
2014-Oct-21 08:33N 54°56' E 019°00'1313.5
2014-Oct-21 07:33N 54°49' E 019°21'1313.1
2014-Oct-21 06:33N 54°43' E 019°41'10 9.4
2014-Oct-21 05:31N 54°38' E 019°55'0 0.2
2014-Oct-21 04:28N 54°38' E 019°55'0 0.0
2014-Oct-21 03:31N 54°38' E 019°55'0 0.0
2014-Oct-21 02:31N 54°38' E 019°55'0 0.0
2014-Oct-21 01:31N 54°38' E 019°55'0 0.0
2014-Oct-21 00:28N 54°38' E 019°55'0 0.0
2014-Oct-20 23:31N 54°38' E 019°55'0 0.0
2014-Oct-20 22:31N 54°38' E 019°55'0 0.0
2014-Oct-20 21:30N 54°38' E 019°55'0 0.0
2014-Oct-20 20:31N 54°38' E 019°55'2 1.8
2014-Oct-20 19:09N 54°39' E 019°51'2 3.1
2014-Oct-20 18:29N 54°40' E 019°48'1 0.7
2014-Oct-20 17:33N 54°39' E 019°49'0 0.0
2014-Oct-20 16:33N 54°39' E 019°49'0 0.0
2014-Oct-20 15:33N 54°39' E 019°49'0 0.0
2014-Oct-20 14:33N 54°39' E 019°49'0 0.1
2014-Oct-20 13:33N 54°39' E 019°49'0 0.0
2014-Oct-20 12:27N 54°39' E 019°49'0 0.1
2014-Oct-20 11:33N 54°39' E 019°49'0 0.0
2014-Oct-20 10:33N 54°39' E 019°49'0 0.0
2014-Oct-20 09:27N 54°39' E 019°49'0 0.0
2014-Oct-20 08:33N 54°39' E 019°49'0 0.0
2014-Oct-20 07:33N 54°39' E 019°49'6 6.4
2014-Oct-20 06:33N 54°43' E 019°40'10 9.7
2014-Oct-20 05:33N 54°52' E 019°34'1010.3
2014-Oct-20 04:33N 55°02' E 019°35'1110.4
2014-Oct-20 03:30N 55°13' E 019°36'  

Dump ship's entire track history